| time (UTC) | temp F | wind direction | speed knots | gust knots | rain 1hr in | rain 24hr in | rain mn in | humidity % | barometer mb |
| 20260505184507 | 54 | 270 | 13.0 | 0.0 | 0.00 | 0.00 | 0.00 | 33 | 981.1 |
| 20260505183022 | 54 | 270 | 13.9 | 0.0 | 0.00 | 0.00 | 0.00 | 34 | 980.4 |
| 20260505181507 | 55 | 267 | 13.0 | 0.0 | 0.00 | 0.00 | 0.00 | 34 | 980.4 |
| 20260505180023 | 55 | 267 | 13.0 | 0.0 | 0.00 | 0.00 | 0.00 | 34 | 980.4 |
| 20260505174507 | 55 | 272 | 13.0 | 0.0 | 0.00 | 0.00 | 0.00 | 33 | 979.7 |
| 20260505173014 | 55 | 273 | 13.0 | 0.0 | 0.00 | 0.00 | 0.00 | 33 | 978.9 |
| 20260505171507 | 55 | 270 | 12.2 | 0.0 | 0.00 | 0.00 | 0.00 | 33 | 978.9 |
| 20260505170018 | 55 | 271 | 12.2 | 0.0 | 0.00 | 0.00 | 0.00 | 33 | 978.9 |
| 20260505164507 | 55 | 277 | 12.2 | 0.0 | 0.00 | 0.00 | 0.00 | 33 | 979.6 |
| 20260505163022 | 55 | 276 | 12.2 | 0.0 | 0.00 | 0.00 | 0.00 | 30 | 977.8 |
| 20260505161507 | 54 | 276 | 11.3 | 0.0 | 0.00 | 0.00 | 0.00 | 30 | 977.8 |
| 20260505153023 | 54 | 266 | 12.2 | 0.0 | 0.00 | 0.00 | 0.00 | 33 | 978.7 |
| 20260505151507 | 53 | 269 | 12.2 | 0.0 | 0.00 | 0.00 | 0.00 | 33 | 978.7 |
| 20260505124507 | 52 | 294 | 9.6 | 0.0 | 0.00 | 0.00 | 0.00 | 59 | 977.9 |
| 20260505123023 | 52 | 298 | 6.1 | 0.0 | 0.00 | 0.00 | 0.00 | 55 | 976.3 |
| 20260505121507 | 52 | 326 | 6.1 | 0.0 | 0.00 | 0.00 | 0.00 | 55 | 976.3 |
| 20260505120026 | 51 | 325 | 7.0 | 0.0 | 0.00 | 0.00 | 0.00 | 55 | 976.3 |
| 20260505114507 | 51 | 318 | 5.2 | 0.0 | 0.00 | 0.00 | 0.00 | 61 | 976.2 |
| 20260505113015 | 51 | 332 | 7.8 | 0.0 | 0.00 | 0.00 | 0.00 | 63 | 974.7 |
| 20260505111507 | 51 | 337 | 7.8 | 0.0 | 0.00 | 0.00 | 0.00 | 63 | 974.6 |
| 20260505101507 | 51 | 287 | 9.6 | 0.0 | 0.00 | 0.00 | 0.00 | 52 | 973.1 |
| 20260505100028 | 51 | 275 | 8.7 | 0.0 | 0.00 | 0.00 | 0.00 | 52 | 973.1 |
| 20260505094507 | 52 | 278 | 8.7 | 0.0 | 0.00 | 0.00 | 0.00 | 50 | 973.3 |
| 20260505093024 | 53 | 274 | 7.8 | 0.0 | 0.00 | 0.00 | 0.00 | 48 | 972.9 |
| 20260505091507 | 53 | 257 | 8.7 | 0.0 | 0.00 | 0.00 | 0.00 | 48 | 973.0 |
| 20260505090028 | 54 | 261 | 8.7 | 0.0 | 0.00 | 0.00 | 0.00 | 48 | 973.0 |
| 20260505084505 | 54 | 274 | 7.8 | 0.0 | 0.00 | 0.00 | 0.00 | 66 | 973.3 |
| 20260505083021 | 54 | 270 | 7.0 | 0.0 | 0.00 | 0.00 | 0.00 | 67 | 972.5 |
| 20260505081507 | 53 | 257 | 7.0 | 0.0 | 0.00 | 0.00 | 0.00 | 67 | 972.5 |
| 20260505080026 | 53 | 250 | 7.0 | 0.0 | 0.00 | 0.00 | 0.00 | 49 | 972.7 |
| 20260505074507 | 54 | 246 | 7.8 | 0.0 | 0.00 | 0.00 | 0.00 | 74 | 972.0 |
| 20260505073024 | 54 | 251 | 7.8 | 0.0 | 0.00 | 0.00 | 0.00 | 74 | 972.0 |
| 20260505071507 | 56 | 244 | 11.3 | 0.0 | 0.00 | 0.00 | 0.00 | 74 | 972.0 |
| 20260505070026 | 56 | 220 | 8.7 | 0.0 | 0.00 | 0.00 | 0.00 | 74 | 972.0 |
| 20260505064507 | 56 | 241 | 7.8 | 0.0 | 0.00 | 0.00 | 0.00 | 66 | 972.4 |
| 20260505063015 | 57 | 236 | 7.8 | 0.0 | 0.00 | 0.00 | 0.00 | 76 | 971.9 |
| 20260505061507 | 57 | 238 | 7.8 | 0.0 | 0.00 | 0.00 | 0.00 | 76 | 971.9 |
| 20260505060028 | 58 | 240 | 8.7 | 0.0 | 0.00 | 0.00 | 0.00 | 76 | 971.9 |
| 20260505054507 | 58 | 242 | 9.6 | 0.0 | 0.00 | 0.00 | 0.00 | 72 | 973.2 |
| 20260505053024 | 58 | 259 | 11.3 | 0.0 | 0.00 | 0.00 | 0.00 | 62 | 971.7 |
| 20260505051507 | 60 | 256 | 13.0 | 0.0 | 0.00 | 0.00 | 0.00 | 62 | 971.8 |
| 20260505041507 | 62 | 229 | 13.0 | 0.0 | 0.01 | 0.01 | 0.01 | 65 | 971.4 |
| 20260505040027 | 61 | 207 | 13.0 | 0.0 | 0.01 | 0.01 | 0.01 | 65 | 971.4 |
| 20260505034504 | 63 | 228 | 17.4 | 0.0 | 0.00 | 0.00 | 0.00 | 55 | 971.4 |
| 20260505033023 | 62 | 215 | 14.8 | 0.0 | 0.00 | 0.00 | 0.00 | 59 | 971.4 |
| 20260505031507 | 62 | 209 | 14.8 | 0.0 | 0.00 | 0.00 | 0.00 | 59 | 971.4 |
| 20260505030027 | 62 | 204 | 14.8 | 0.0 | 0.00 | 0.00 | 0.00 | 59 | 971.4 |
| 20260505024507 | 63 | 199 | 16.5 | 0.0 | 0.00 | 0.00 | 0.00 | 51 | 971.5 |
| 20260505023023 | 64 | 209 | 16.5 | 0.0 | 0.00 | 0.00 | 0.00 | 59 | 971.5 |
| 20260505021507 | 63 | 206 | 15.6 | 0.0 | 0.00 | 0.00 | 0.00 | 59 | 971.4 |
| 20260505020026 | 64 | 206 | 14.8 | 0.0 | 0.00 | 0.00 | 0.00 | 59 | 971.4 |
| 20260505014507 | 64 | 213 | 15.6 | 0.0 | 0.00 | 0.00 | 0.00 | 50 | 970.6 |
| 20260505013021 | 65 | 206 | 15.6 | 0.0 | 0.00 | 0.00 | 0.00 | 50 | 970.6 |
| 20260505011508 | 64 | 207 | 15.6 | 0.0 | 0.00 | 0.00 | 0.00 | 50 | 970.5 |
| 20260505010024 | 65 | 206 | 14.8 | 0.0 | 0.00 | 0.00 | 0.00 | 50 | 970.5 |
| 20260505004507 | 65 | 210 | 7.0 | 0.0 | 0.00 | 0.00 | 0.00 | 41 | 971.3 |
| 20260505003021 | 66 | 204 | 6.1 | 0.0 | 0.00 | 0.00 | 0.00 | 40 | 971.9 |
| 20260505001506 | 67 | 202 | 6.1 | 0.0 | 0.00 | 0.00 | 0.00 | 40 | 971.9 |
| 20260505000019 | 68 | 210 | 6.1 | 0.0 | 0.00 | 0.00 | 0.00 | 40 | 971.9 |
| 20260504234506 | 69 | 220 | 7.8 | 0.0 | 0.00 | 0.00 | 0.00 | 34 | 972.1 |
| 20260504233022 | 70 | 227 | 10.4 | 0.0 | 0.00 | 0.00 | 0.00 | 34 | 971.9 |
| 20260504231505 | 71 | 231 | 10.4 | 0.0 | 0.00 | 0.00 | 0.00 | 34 | 971.8 |
| 20260504230024 | 71 | 235 | 12.2 | 0.0 | 0.00 | 0.00 | 0.00 | 34 | 971.8 |
| 20260504224506 | 72 | 240 | 13.9 | 0.0 | 0.00 | 0.00 | 0.00 | 34 | 971.8 |
| 20260504223022 | 72 | 246 | 14.8 | 0.0 | 0.00 | 0.00 | 0.00 | 34 | 972.2 |
| 20260504221506 | 72 | 245 | 14.8 | 0.0 | 0.00 | 0.00 | 0.00 | 34 | 972.2 |
| 20260504220027 | 72 | 243 | 15.6 | 0.0 | 0.00 | 0.00 | 0.00 | 34 | 972.2 |
| 20260504214505 | 72 | 240 | 16.5 | 0.0 | 0.00 | 0.00 | 0.00 | 35 | 973.1 |
| 20260504213022 | 73 | 235 | 16.5 | 0.0 | 0.00 | 0.00 | 0.00 | 35 | 973.1 |
| 20260504211505 | 72 | 236 | 17.4 | 0.0 | 0.00 | 0.00 | 0.00 | 31 | 972.0 |
| 20260504210024 | 72 | 231 | 16.5 | 0.0 | 0.00 | 0.00 | 0.00 | 31 | 972.0 |
| 20260504204510 | 72 | 237 | 17.4 | 0.0 | 0.00 | 0.00 | 0.00 | 31 | 972.8 |
| 20260504203013 | 73 | 236 | 17.4 | 0.0 | 0.00 | 0.00 | 0.00 | 31 | 972.8 |
| 20260504201510 | 73 | 236 | 17.4 | 0.0 | 0.00 | 0.00 | 0.00 | 31 | 972.8 |
| 20260504200018 | 73 | 236 | 18.2 | 0.0 | 0.00 | 0.00 | 0.00 | 35 | 972.1 |
| 20260504194510 | 73 | 236 | 19.1 | 0.0 | 0.00 | 0.00 | 0.00 | 27 | 972.8 |
| 20260504193023 | 73 | 231 | 18.2 | 0.0 | 0.00 | 0.00 | 0.00 | 27 | 972.8 |
| 20260504191511 | 73 | 228 | 18.2 | 0.0 | 0.00 | 0.00 | 0.00 | 27 | 972.8 |
| 20260504190025 | 73 | 225 | 18.2 | 0.0 | 0.00 | 0.00 | 0.00 | 27 | 972.8 |